Butte, MT

11:24 PM MDT on August 23, 2017 (GMT -0600)
Mooney

Weather History for KBTM - June, 2013

Change the Weather History Date:

Thursday, June 27, 2013

  Actual Average Record
Temperature  
Mean Temperature 64 °F 59 °F  
Max Temperature 84 °F 75 °F 94 °F (2015)
Min Temperature 44 °F 43 °F 31 °F (1949)
Degree Days  
Heating Degree Days 1 7  
Month to date heating degree days 243 269  
Since 1 June heating degree days 243 269  
Since 1 July heating degree days 9030 9201  
Cooling Degree Days 0 0  
Month to date cooling degree days 1 0  
Year to date cooling degree days 1 0  
Since 1 June cooling degree days 1 0  
Growing Degree Days 13 (Base 50)    
Moisture  
Dew Point 42 °F    
Average Humidity 56    
Maximum Humidity 93    
Minimum Humidity 18    
Precipitation  
Precipitation 0.00 in 0.06 in 0.62 in (1944)
Month to date precipitation 1.53 2.10  
Year to date precipitation 4.84 7.01  
Sea Level Pressure  
Sea Level Pressure 30.16 in    
Wind  
Wind Speed 6 mph (WNW)    
Max Wind Speed 17 mph    
Max Gust Speed 26 mph    
Visibility 10 miles    
Events      
T = Trace of Precipitation, MM = Missing Value Source: NWS Daily Summary

Daily Weather History Graph

Daily Weather History Graph

Search for Another Location

Airport or City:

Trip Planner

Search our weather history database for the weather conditions in past years. The results will help you decide how hot, cold, wet, or windy it might be!

Date:

Astronomy

Jun. 27, 2013 Rise Set
Actual Time 5:41 AM MDT 9:24 PM MDT
Civil Twilight 5:03 AM MDT 10:03 PM MDT
Nautical Twilight 4:11 AM MDT 10:54 PM MDT
Astronomical Twilight 2:59 AM MDT 12:05 AM MDT
Moon No Moon Rise 11:04 AM MDT (6/27)
Length of Visible Light 17h 00m
Length of Day
15h 43m
Waning Gibbous, 76% of the Moon is Illuminated
Jun 27
Waning Gibbous
Jun 29
Last Quarter
Jul 8
New
Jul 15
First Quarter
Jul 22
Full

Hourly Weather History & Observations

Time (MDT) Temp. Windchill Dew Point Humidity Pressure Visibility Wind Dir Wind Speed Gust Speed Precip Events Conditions
12:53 AM 53.1 °F - 46.0 °F 77% 30.12 in 10.0 mi NNE 3.5 mph - N/A   Clear
1:53 AM 50.0 °F - 46.0 °F 86% 30.14 in 10.0 mi SSE 4.6 mph - N/A   Partly Cloudy
2:53 AM 50.0 °F - 45.0 °F 83% 30.16 in 10.0 mi Calm Calm - N/A   Partly Cloudy
3:53 AM 46.0 °F 43.9 °F 44.1 °F 93% 30.17 in 10.0 mi SSE 4.6 mph - N/A   Mostly Cloudy
4:53 AM 46.9 °F - 44.1 °F 90% 30.18 in 10.0 mi South 3.5 mph - N/A   Clear
5:53 AM 44.1 °F 42.5 °F 42.1 °F 93% 30.20 in 10.0 mi SSE 3.5 mph - N/A   Clear
6:53 AM 46.0 °F 42.5 °F 43.0 °F 89% 30.21 in 10.0 mi South 6.9 mph - N/A   Clear
7:53 AM 50.0 °F - 45.0 °F 83% 30.21 in 10.0 mi Calm Calm - N/A   Clear
8:53 AM 57.0 °F - 46.9 °F 69% 30.19 in 10.0 mi Calm Calm - N/A   Clear
9:53 AM 64.0 °F - 48.0 °F 56% 30.18 in 10.0 mi NNE 4.6 mph - N/A   Clear
10:53 AM 71.1 °F - 46.0 °F 41% 30.16 in 10.0 mi North 4.6 mph - N/A   Clear
11:53 AM 73.9 °F - 42.1 °F 32% 30.17 in 10.0 mi NNW 8.1 mph - N/A   Clear
12:53 PM 78.1 °F - 37.0 °F 23% 30.15 in 10.0 mi WNW 8.1 mph 19.6 mph N/A   Clear
1:53 PM 80.1 °F - 37.0 °F 21% 30.15 in 10.0 mi WNW 11.5 mph 19.6 mph N/A   Partly Cloudy
2:53 PM 82.0 °F - 39.9 °F 22% 30.14 in 10.0 mi West 10.4 mph 16.1 mph N/A   Partly Cloudy
3:53 PM 82.0 °F - 35.1 °F 18% 30.15 in 10.0 mi Variable 4.6 mph 19.6 mph N/A   Partly Cloudy
4:53 PM 82.9 °F - 39.9 °F 22% 30.14 in 10.0 mi West 11.5 mph - N/A   Clear
5:53 PM 82.9 °F - 37.9 °F 20% 30.14 in 10.0 mi NW 10.4 mph 16.1 mph N/A   Partly Cloudy
6:53 PM 82.9 °F - 39.0 °F 21% 30.14 in 10.0 mi NW 9.2 mph - N/A   Clear
7:53 PM 81.0 °F - 41.0 °F 24% 30.13 in 10.0 mi NW 11.5 mph - N/A   Clear
8:53 PM 78.1 °F - 42.1 °F 28% 30.13 in 10.0 mi WNW 9.2 mph - N/A   Clear
9:53 PM 72.0 °F - 41.0 °F 33% 30.16 in 10.0 mi WNW 8.1 mph - N/A   Clear
10:53 PM 64.0 °F - 44.1 °F 48% 30.20 in 10.0 mi SSE 4.6 mph - N/A   Clear
11:53 PM 61.0 °F - 44.1 °F 54% 30.21 in 10.0 mi South 3.5 mph - N/A   Clear